Regional Weather Roundup
Issued by NWS Portland, ME

Home | Current Version | Previous Version | Text Only | Print | Product List | Glossary On
Versions: 1 2 3 4 5 6 7 8 9 10 11 12 13 14 15 16 17 18 19 20 21 22 23 24 25 26 27 28 29 30 31 32 33 34 35 36 37 38 39 40 41 42 43 44 45 46 47 48 49 50
708
ASUS41 KGYX 240205
RWRGYX
WEATHER ROUNDUP FOR MAINE AND NEW HAMPSHIRE
NATIONAL WEATHER SERVICE GRAY ME
1000 PM EDT THU MAR 23 2017

MEZ002-005-006-010-012-015-018-020-021-024-026-027-029-240300-
MAINE

CITY           SKY/WX    TMP DP  RH WIND       PRES   REMARKS
PORTLAND       PTCLDY    27  -1  30 CALM      30.50R
SANFORD        PTCLDY    27   3  35 NW5       30.49S
BAR HARBOR     CLEAR     20  -3  36 VRB3      30.47R
WISCASSET      CLEAR     21   4  47 CALM      30.51R
ROCKLAND       CLEAR     22   1  40 VRB3      30.48R
FRYEBURG       CLOUDY    27  -4  26 NW9G17    30.47S
LEWISTONAUBURN CLEAR     21  -1  38 CALM      30.48R
AUGUSTA        CLEAR     23  -5  29 NW3       30.47R
WATERVILLE     CLEAR     16  -1  47 CALM      30.43R
BANGOR         CLEAR     20  -4  34 W6        30.46R
GREENVILLE       N/A     12  -2  53 VRB6      30.31S
MILLINOCKET    CLEAR     19  -3  38 NW6       30.41R
HOULTON        CLEAR     10  -4  53 CALM      30.36R
PRESQUE ISLE   CLEAR     13  -6  42 W6        30.36S
FRENCHVILLE    CLEAR     13  -7  40 NW14      30.30R WCI  -2
CARIBOU        PTCLDY    13  -7  40 VRB3      30.33R
$$

NHZ002-005-008-009-011-012-014-240300-
NEW HAMPSHIRE

CITY           SKY/WX    TMP DP  RH WIND       PRES   REMARKS
PORTSMOUTH     MOCLDY    29   0  28 W5        30.49R
ROCHESTER      PTCLDY    28   2  32 NW7       30.47R
NASHUA         CLEAR     26  11  52 W3        30.51R
MANCHESTER     PTCLDY    31   1  28 CALM      30.49R
CONCORD        PTCLDY    28   2  32 CALM      30.50R
LACONIA        CLOUDY    27   4  37 VRB3      30.48R
PLYMOUTH       FAIR      27   4  38 CALM      30.48F
BERLIN         CLOUDY    11   0  61 CALM      30.43R
WHITEFIELD     PTCLDY    13   0  56 CALM      30.44F
JAFFREY        CLEAR     25   7  46 SE3       30.47R
KEENE          CLEAR     24  11  57 CALM      30.51R
LEBANON        PTCLDY    22   8  55 S3        30.47S
MT WASHINGTON  PTCLDY     5 -20  30 NW51        N/A  WCI -24
$$

VTZ005-007-008-240300-
VERMONT

CITY           SKY/WX    TMP DP  RH WIND       PRES   REMARKS
ST JOHNSBURY     N/A     20   8  60 MISG      30.44F
MONTPELIER     CLOUDY    21   6  52 CALM      30.47F
BURLINGTON     CLOUDY    29   6  38 CALM      30.47F
$$

MAZ007-012-024-CTZ003-RIZ002-NYZ038-NYZ072-240300-
SOUTHERN NEW ENGLAND AND NY

CITY           SKY/WX    TMP DP  RH WIND       PRES   REMARKS
BOSTON         CLEAR     34   4  28 W8        30.53R
WORCESTER      CLEAR     27   0  31 W10       30.48  WCI  17
NANTUCKET      CLEAR     33  11  39 NW9       30.53R
PROVIDENCE     CLEAR     30   3  31 W5        30.54R
HARTFORD       CLEAR     28   7  41 W3        30.55R
ALBANY         PTCLDY    28   7  41 CALM      30.53R
NEW YORK CITY  CLEAR     40  21  46 S8        30.56R
$$

ANZ081-ANZ082-ANZ150-NHZ014-MEZ023>029-240300-
COASTAL MARINE OBSERVATIONS

STATION/POSITION TIME  TEMP    WIND        PRES    WAVE
                       AIR SEA DIR/SP/G            HT/PER
                 (UTC) (F)     (DEG/KT/KT) (MB)    (FT/S)
MOUNT DESERT ROC 0100   28                 1030.8R
MATINICUS ROCK   0100   29     330/ 24/ 26 1030.8R
ISLE OF SHOALS   0100   34     310/ 14/ 16 1031.9R
JEFFREYS LEDGE   0106      41                N/A     4/ 5
CASHES LEDGE BUO 0050   32 39              1031.1    5/ 5
GEORGES BANK BUO 0050   33 39              1030.2   11/ 9
$$

.............KEY..............
   WCI - WIND CHILL
   TC  - TEMPERATURE IN CELSIUS
   VSB - VISIBILITY IN MILES
   HX  - HEAT INDEX
   FAIR- INDICATES FEW OR NO CLOUDS BELOW 12,000 FT, WITH NO
         SIGNIFICANT WEATHER AND/OR OBSTRUCTIONS TO VISIBILITY.






USA.gov is the U.S. government's official web portal to all federal, state and local government web resources and services.